owner,sensor,date,latitude,longitude,vertical_datum,wind_speed,wind_to_direction,wind_speed_of_gust,qcFlag 
TABS,ioos:station:wmo:42047:1,2015-05-01T00:00:00Z,27.8966,-93.5973,4.0,1.066770828,353.5409883,1.93,'11111222,11111222,11111222' 
TABS,ioos:station:wmo:42047:1,2015-05-01T00:30:00Z,27.8966,-93.5973,4.0,1.050761629,2.181425843,2.24,'11111222,11111222,11111222' 
TABS,ioos:station:wmo:42047:1,2015-05-01T01:00:00Z,27.8966,-93.5973,4.0,0.944298682,65.60589674,1.9,'11111222,11111222,11111222' 
TABS,ioos:station:wmo:42047:1,2015-05-01T01:30:00Z,27.8966,-93.5973,4.0,0.948736001,32.51722412,1.51,'11111222,11111222,11111222' 
TABS,ioos:station:wmo:42047:1,2015-05-01T02:00:00Z,27.8966,-93.5973,4.0,1.151043005,299.6830708,1.87,'11111222,11111222,11111222' 
TABS,ioos:station:wmo:42047:1,2015-05-01T02:30:00Z,27.8966,-93.5973,4.0,0.338378486,304.1596147,0.71,'11111222,11111222,11111222' 
TABS,ioos:station:wmo:42047:1,2015-05-01T03:00:00Z,27.8966,-93.5973,4.0,0.901387819,197.4300325,1.7,'11111222,11111222,11111222' 
TABS,ioos:station:wmo:42047:1,2015-05-01T03:30:00Z,27.8966,-93.5973,4.0,1.085587399,301.0541985,1.82,'11111222,11111222,11111222' 
TABS,ioos:station:wmo:42047:1,2015-05-01T04:00:00Z,27.8966,-93.5973,4.0,1.571909667,287.3974722,2.67,'11111222,11111222,11111222' 
TABS,ioos:station:wmo:42047:1,2015-05-01T04:30:00Z,27.8966,-93.5973,4.0,1.138990781,226.7789014,1.86,'11111222,11111222,11111222' 
TABS,ioos:station:wmo:42047:1,2015-05-01T05:00:00Z,27.8966,-93.5973,4.0,0.294278779,99.78280507,0.93,'11111222,11111222,11111222' 
TABS,ioos:station:wmo:42047:1,2015-05-01T05:30:00Z,27.8966,-93.5973,4.0,1.376117728,261.2222031,2.27,'11111222,11111222,11111222' 
TABS,ioos:station:wmo:42047:1,2015-05-01T06:00:00Z,27.8966,-93.5973,4.0,1.447791421,214.0194809,2.48,'11111222,11111222,11111222' 
TABS,ioos:station:wmo:42047:1,2015-05-01T06:30:00Z,27.8966,-93.5973,4.0,1.805463929,227.9185331,2.64,'11111222,11111222,11111222' 
TABS,ioos:station:wmo:42047:1,2015-05-01T07:00:00Z,27.8966,-93.5973,4.0,2.32,223.6029275,3.62,'11111222,11111222,11111222' 
TABS,ioos:station:wmo:42047:1,2015-05-01T07:30:00Z,27.8966,-93.5973,4.0,1.723513853,251.0394609,2.74,'11111222,11111222,11111222' 
TABS,ioos:station:wmo:42047:1,2015-05-01T08:00:00Z,27.8966,-93.5973,4.0,2.170921463,224.4402307,3.15,'11111222,11111222,11111222' 
TABS,ioos:station:wmo:42047:1,2015-05-01T08:30:00Z,27.8966,-93.5973,4.0,1.972536438,231.7939199,3.53,'11111222,11111222,11111222' 
TABS,ioos:station:wmo:42047:1,2015-05-01T09:00:00Z,27.8966,-93.5973,4.0,2.021583538,244.1955279,3.18,'11111222,11111222,11111222' 
TABS,ioos:station:wmo:42047:1,2015-05-01T09:30:00Z,27.8966,-93.5973,4.0,1.821675053,255.0483576,2.58,'11111222,11111222,11111222' 
TABS,ioos:station:wmo:42047:1,2015-05-01T10:00:00Z,27.8966,-93.5973,4.0,2.102974084,251.1343081,2.97,'11111222,11111222,11111222' 
TABS,ioos:station:wmo:42047:1,2015-05-01T10:30:00Z,27.8966,-93.5973,4.0,2.634179189,251.6338765,3.79,'11111222,11111222,11111222' 
TABS,ioos:station:wmo:42047:1,2015-05-01T11:00:00Z,27.8966,-93.5973,4.0,2.590617687,241.6543727,3.4,'11111222,11111222,11111222' 
TABS,ioos:station:wmo:42047:1,2015-05-01T11:30:00Z,27.8966,-93.5973,4.0,2.202271555,267.3974439,3.23,'11111222,11111222,11111222' 
TABS,ioos:station:wmo:42047:1,2015-05-01T12:00:00Z,27.8966,-93.5973,4.0,1.87066833,268.4683958,2.78,'11111222,11111222,11111222' 
TABS,ioos:station:wmo:42047:1,2015-05-01T12:30:00Z,27.8966,-93.5973,4.0,1.906331556,283.9633155,2.87,'11111222,11111222,11111222' 
TABS,ioos:station:wmo:42047:1,2015-05-01T13:00:00Z,27.8966,-93.5973,4.0,2.473863375,284.0362106,3.48,'11111222,11111222,11111222' 
TABS,ioos:station:wmo:42047:1,2015-05-01T13:30:00Z,27.8966,-93.5973,4.0,1.70425937,295.3621076,2.45,'11111222,11111222,11111222' 
TABS,ioos:station:wmo:42047:1,2015-05-01T14:00:00Z,27.8966,-93.5973,4.0,2.135649784,315.7587331,2.9,'11111222,11111222,11111222' 
TABS,ioos:station:wmo:42047:1,2015-05-01T14:30:00Z,27.8966,-93.5973,4.0,1.776541584,312.4905359,2.53,'11111222,11111222,11111222' 
TABS,ioos:station:wmo:42047:1,2015-05-01T15:00:00Z,27.8966,-93.5973,4.0,2.022003956,300.6235104,3.15,'11111222,11111222,11111222' 
TABS,ioos:station:wmo:42047:1,2015-05-01T15:30:00Z,27.8966,-93.5973,4.0,1.955095906,329.2371419,2.71,'11111222,11111222,11111222' 
TABS,ioos:station:wmo:42047:1,2015-05-01T16:00:00Z,27.8966,-93.5973,4.0,2.04413796,326.7762408,2.8,'11111222,11111222,11111222' 
TABS,ioos:station:wmo:42047:1,2015-05-01T16:30:00Z,27.8966,-93.5973,4.0,2.552645686,336.4475809,3.59,'11111222,11111222,11111222' 
TABS,ioos:station:wmo:42047:1,2015-05-01T17:00:00Z,27.8966,-93.5973,4.0,2.694921149,349.5238224,3.72,'11111222,11111222,11111222' 
TABS,ioos:station:wmo:42047:1,2015-05-01T17:30:00Z,27.8966,-93.5973,4.0,3.112699793,8.312093768,4.14,'11111222,11111222,11111222' 
TABS,ioos:station:wmo:42047:1,2015-05-01T18:00:00Z,27.8966,-93.5973,4.0,2.895582843,5.946638689,4.07,'11111222,11111222,11111222' 
TABS,ioos:station:wmo:42047:1,2015-05-01T18:30:00Z,27.8966,-93.5973,4.0,2.471315439,10.49124202,3.69,'11111222,11111222,11111222' 
TABS,ioos:station:wmo:42047:1,2015-05-01T19:00:00Z,27.8966,-93.5973,4.0,2.732471409,8.841583426,4.23,'11111222,11111222,11111222' 
TABS,ioos:station:wmo:42047:1,2015-05-01T19:30:00Z,27.8966,-93.5973,4.0,2.976188838,5.978551598,4.09,'11111222,11111222,11111222' 
TABS,ioos:station:wmo:42047:1,2015-05-01T20:00:00Z,27.8966,-93.5973,4.0,2.970690156,9.493797226,4.44,'11111222,11111222,11111222' 
TABS,ioos:station:wmo:42047:1,2015-05-01T20:30:00Z,27.8966,-93.5973,4.0,3.12057687,358.898086,4.34,'11111222,11111222,11111222' 
TABS,ioos:station:wmo:42047:1,2015-05-01T21:00:00Z,27.8966,-93.5973,4.0,2.238079534,4.86971987,3.1,'11111222,11111222,11111222' 
TABS,ioos:station:wmo:42047:1,2015-05-01T21:30:00Z,27.8966,-93.5973,4.0,2.627108677,12.97802911,3.69,'11111222,11111222,11111222' 
TABS,ioos:station:wmo:42047:1,2015-05-01T22:00:00Z,27.8966,-93.5973,4.0,2.425386567,22.54691448,3.7,'11111222,11111222,11111222' 
TABS,ioos:station:wmo:42047:1,2015-05-01T22:30:00Z,27.8966,-93.5973,4.0,2.418284516,4.743744391,3.48,'11111222,11111222,11111222' 
TABS,ioos:station:wmo:42047:1,2015-05-01T23:00:00Z,27.8966,-93.5973,4.0,1.87,359.9997895,2.85,'11111222,11144222,11111222' 
TABS,ioos:station:wmo:42047:1,2015-05-01T23:30:00Z,27.8966,-93.5973,4.0,1.726296614,26.11948462,2.57,'11111222,11111222,11111222' 
TABS,ioos:station:wmo:42047:1,2015-05-02T00:00:00Z,27.8966,-93.5973,4.0,1.920442657,5.977549155,2.78,'11111222,11111222,11111222' 
TABS,ioos:station:wmo:42047:1,2015-05-02T00:30:00Z,27.8966,-93.5973,4.0,1.274244874,351.424577,2.16,'11111222,11111222,11111222' 
TABS,ioos:station:wmo:42047:1,2015-05-02T01:00:00Z,27.8966,-93.5973,4.0,0.43829214,325.2220395,1.3,'11111222,11111222,11111222' 
TABS,ioos:station:wmo:42047:1,2015-05-02T01:30:00Z,27.8966,-93.5973,4.0,1.285496013,336.6256798,2.2,'11111222,11111222,11111222' 
TABS,ioos:station:wmo:42047:1,2015-05-02T02:00:00Z,27.8966,-93.5973,4.0,1.004987562,328.8405579,1.99,'11111222,11111222,11111222' 
TABS,ioos:station:wmo:42047:1,2015-05-02T02:30:00Z,27.8966,-93.5973,4.0,1.091283648,27.26919776,1.71,'11111222,11111222,11111222' 
TABS,ioos:station:wmo:42047:1,2015-05-02T03:00:00Z,27.8966,-93.5973,4.0,1.253554945,338.9623277,2.21,'11111222,11111222,11111222' 
TABS,ioos:station:wmo:42047:1,2015-05-02T03:30:00Z,27.8966,-93.5973,4.0,1.350740538,303.2193985,2.54,'11111222,11111222,11111222' 
TABS,ioos:station:wmo:42047:1,2015-05-02T04:00:00Z,27.8966,-93.5973,4.0,0.904267659,302.8112901,1.51,'11111222,11111222,11111222' 
TABS,ioos:station:wmo:42047:1,2015-05-02T04:30:00Z,27.8966,-93.5973,4.0,0.950789146,255.3791602,2.02,'11111222,11111222,11111222' 
TABS,ioos:station:wmo:42047:1,2015-05-02T05:00:00Z,27.8966,-93.5973,4.0,1.029563014,245.924558,1.67,'11111222,11111222,11111222' 
TABS,ioos:station:wmo:42047:1,2015-05-02T05:30:00Z,27.8966,-93.5973,4.0,0.958018789,233.4890293,1.6,'11111222,11111222,11111222' 
TABS,ioos:station:wmo:42047:1,2015-05-02T06:00:00Z,27.8966,-93.5973,4.0,0.742495791,224.4544489,1.65,'11111222,11111222,11111222' 
TABS,ioos:station:wmo:42047:1,2015-05-02T06:30:00Z,27.8966,-93.5973,4.0,0.839344983,195.1954235,1.61,'11111222,11111222,11111222' 
TABS,ioos:station:wmo:42047:1,2015-05-02T07:00:00Z,27.8966,-93.5973,4.0,0.988129546,215.9422383,2.0,'11111222,11111222,11111222' 
TABS,ioos:station:wmo:42047:1,2015-05-02T07:30:00Z,27.8966,-93.5973,4.0,1.392838828,201.0376723,2.13,'11111222,11111222,11111222' 
TABS,ioos:station:wmo:42047:1,2015-05-02T08:00:00Z,27.8966,-93.5973,4.0,1.569235483,210.6508067,2.12,'11111222,11111222,11111222' 
TABS,ioos:station:wmo:42047:1,2015-05-02T08:30:00Z,27.8966,-93.5973,4.0,1.482228053,217.8751055,2.24,'11111222,11111222,11111222' 
TABS,ioos:station:wmo:42047:1,2015-05-02T09:00:00Z,27.8966,-93.5973,4.0,1.20266371,183.8142764,1.78,'11111222,11111222,11111222' 
TABS,ioos:station:wmo:42047:1,2015-05-02T09:30:00Z,27.8966,-93.5973,4.0,1.637467557,195.2246049,2.67,'11111222,11111222,11111222' 
TABS,ioos:station:wmo:42047:1,2015-05-02T10:00:00Z,27.8966,-93.5973,4.0,1.035857133,192.8289633,1.63,'11111222,11111222,11111222' 
TABS,ioos:station:wmo:42047:1,2015-05-02T10:30:00Z,27.8966,-93.5973,4.0,0.899388681,221.8452697,1.53,'11111222,11111222,11111222' 
TABS,ioos:station:wmo:42047:1,2015-05-02T11:00:00Z,27.8966,-93.5973,4.0,1.059481005,213.8401875,1.73,'11111222,11111222,11111222' 
TABS,ioos:station:wmo:42047:1,2015-05-02T11:30:00Z,27.8966,-93.5973,4.0,0.601664358,248.5523138,1.22,'11111222,11111222,11111222' 
TABS,ioos:station:wmo:42047:1,2015-05-02T12:00:00Z,27.8966,-93.5973,4.0,0.616846821,289.903703,1.46,'11111222,11111222,11111222' 
TABS,ioos:station:wmo:42047:1,2015-05-02T12:30:00Z,27.8966,-93.5973,4.0,0.288617394,165.9639998,0.69,'11111222,11111222,11111222' 
TABS,ioos:station:wmo:42047:1,2015-05-02T13:00:00Z,27.8966,-93.5973,4.0,0.445982062,42.27337969,0.85,'11111222,11111222,11111222' 
TABS,ioos:station:wmo:42047:1,2015-05-02T13:30:00Z,27.8966,-93.5973,4.0,0.120415946,311.633442,0.52,'11111222,11111222,11111222' 
TABS,ioos:station:wmo:42047:1,2015-05-02T14:00:00Z,27.8966,-93.5973,4.0,0.840238062,91.36434526,1.49,'11111222,11111222,11111222' 
TABS,ioos:station:wmo:42047:1,2015-05-02T14:30:00Z,27.8966,-93.5973,4.0,0.949210198,101.5470845,1.73,'11111222,11111222,11111222' 
TABS,ioos:station:wmo:42047:1,2015-05-02T15:00:00Z,27.8966,-93.5973,4.0,1.041777327,111.3932612,1.44,'11111222,11111222,11111222' 
TABS,ioos:station:wmo:42047:1,2015-05-02T15:30:00Z,27.8966,-93.5973,4.0,1.264950592,78.60084267,1.78,'11111222,11111222,11111222' 
TABS,ioos:station:wmo:42047:1,2015-05-02T16:00:00Z,27.8966,-93.5973,4.0,1.288603896,65.22449645,1.92,'11111222,11111222,11111222' 
TABS,ioos:station:wmo:42047:1,2015-05-02T16:30:00Z,27.8966,-93.5973,4.0,1.705754965,94.70826215,2.73,'11111222,11111222,11111222' 
TABS,ioos:station:wmo:42047:1,2015-05-02T17:00:00Z,27.8966,-93.5973,4.0,1.750114282,55.94638984,2.76,'11111222,11111222,11111222' 
TABS,ioos:station:wmo:42047:1,2015-05-02T17:30:00Z,27.8966,-93.5973,4.0,1.847159982,56.48164882,2.96,'11111222,11111222,11111222' 
TABS,ioos:station:wmo:42047:1,2015-05-02T18:00:00Z,27.8966,-93.5973,4.0,2.212532486,66.56302073,3.49,'11111222,11111222,11111222' 
TABS,ioos:station:wmo:42047:1,2015-05-02T18:30:00Z,27.8966,-93.5973,4.0,2.531244753,63.23213276,3.72,'11111222,11111222,11111222' 
TABS,ioos:station:wmo:42047:1,2015-05-02T19:00:00Z,27.8966,-93.5973,4.0,2.381931989,49.08529154,3.74,'11111222,11111222,11111222' 
TABS,ioos:station:wmo:42047:1,2015-05-02T19:30:00Z,27.8966,-93.5973,4.0,2.26737734,68.52669324,3.65,'11111222,11111222,11111222' 
TABS,ioos:station:wmo:42047:1,2015-05-02T20:00:00Z,27.8966,-93.5973,4.0,1.438923209,83.61543007,2.45,'11111222,11111222,11111222' 
TABS,ioos:station:wmo:42047:1,2015-05-02T20:30:00Z,27.8966,-93.5973,4.0,1.58757677,109.1201025,2.61,'11111222,11111222,11111222' 
TABS,ioos:station:wmo:42047:1,2015-05-02T21:00:00Z,27.8966,-93.5973,4.0,1.236931688,67.1659783,2.34,'11111222,11111222,11111222' 
TABS,ioos:station:wmo:42047:1,2015-05-02T21:30:00Z,27.8966,-93.5973,4.0,1.796941847,80.06550484,2.97,'11111222,11111222,11111222' 
TABS,ioos:station:wmo:42047:1,2015-05-02T22:00:00Z,27.8966,-93.5973,4.0,1.470544117,72.18073184,2.63,'11111222,11111222,11111222' 
TABS,ioos:station:wmo:42047:1,2015-05-02T22:30:00Z,27.8966,-93.5973,4.0,2.079927883,111.1367705,3.2,'11111222,11111222,11111222' 
TABS,ioos:station:wmo:42047:1,2015-05-02T23:00:00Z,27.8966,-93.5973,4.0,2.074536093,132.06965,2.85,'11111222,11111222,11111222' 
TABS,ioos:station:wmo:42047:1,2015-05-02T23:30:00Z,27.8966,-93.5973,4.0,1.816865433,130.088539,3.05,'11111222,11111222,11111222' 
TABS,ioos:station:wmo:42047:1,2015-05-03T00:00:00Z,27.8966,-93.5973,4.0,2.340875904,124.0298349,3.69,'11111222,11111222,11111222' 
TABS,ioos:station:wmo:42047:1,2015-05-03T00:30:00Z,27.8966,-93.5973,4.0,2.806652811,129.3615529,3.83,'11111222,11111222,11111222' 
TABS,ioos:station:wmo:42047:1,2015-05-03T01:00:00Z,27.8966,-93.5973,4.0,2.820638226,128.0891047,4.31,'11111222,11111222,11111222' 
TABS,ioos:station:wmo:42047:1,2015-05-03T01:30:00Z,27.8966,-93.5973,4.0,2.413565827,137.5190283,3.46,'11111222,11111222,11111222' 
TABS,ioos:station:wmo:42047:1,2015-05-03T02:00:00Z,27.8966,-93.5973,4.0,2.92227651,132.9202743,4.47,'11111222,11111222,11111222' 
TABS,ioos:station:wmo:42047:1,2015-05-03T02:30:00Z,27.8966,-93.5973,4.0,3.385291716,167.8936608,4.49,'11111222,11111222,11111222' 
TABS,ioos:station:wmo:42047:1,2015-05-03T03:00:00Z,27.8966,-93.5973,4.0,3.604011654,147.8095345,4.57,'11111222,11111222,11111222' 
TABS,ioos:station:wmo:42047:1,2015-05-03T03:30:00Z,27.8966,-93.5973,4.0,3.582178108,150.5728229,4.9,'11111222,11111222,11111222' 
TABS,ioos:station:wmo:42047:1,2015-05-03T04:00:00Z,27.8966,-93.5973,4.0,4.155237659,145.392346,5.29,'11111222,11111222,11111222' 
TABS,ioos:station:wmo:42047:1,2015-05-03T04:30:00Z,27.8966,-93.5973,4.0,3.811364585,135.3192121,5.42,'11111222,11111222,11111222' 
TABS,ioos:station:wmo:42047:1,2015-05-03T05:00:00Z,27.8966,-93.5973,4.0,4.244066446,153.5559707,6.28,'11111222,11111222,11111222' 
TABS,ioos:station:wmo:42047:1,2015-05-03T05:30:00Z,27.8966,-93.5973,4.0,3.955957533,155.5083667,5.39,'11111222,11111222,11111222' 
TABS,ioos:station:wmo:42047:1,2015-05-03T06:00:00Z,27.8966,-93.5973,4.0,4.653654478,155.3627128,6.02,'11111222,11111222,11111222' 
TABS,ioos:station:wmo:42047:1,2015-05-03T06:30:00Z,27.8966,-93.5973,4.0,4.810093554,151.5704405,6.19,'11111222,11111222,11111222' 
TABS,ioos:station:wmo:42047:1,2015-05-03T07:00:00Z,27.8966,-93.5973,4.0,4.830093167,157.7362674,6.52,'11111222,11111222,11111222' 
TABS,ioos:station:wmo:42047:1,2015-05-03T07:30:00Z,27.8966,-93.5973,4.0,4.889836398,169.6325065,5.78,'11111222,11111222,11111222' 
TABS,ioos:station:wmo:42047:1,2015-05-03T08:00:00Z,27.8966,-93.5973,4.0,4.722255817,158.3790972,5.97,'11111222,11111222,11111222' 
TABS,ioos:station:wmo:42047:1,2015-05-03T08:30:00Z,27.8966,-93.5973,4.0,4.715941051,164.7557831,5.83,'11111222,11111222,11111222' 
TABS,ioos:station:wmo:42047:1,2015-05-03T09:00:00Z,27.8966,-93.5973,4.0,3.978605283,171.0350915,5.89,'11111222,11111222,11111222' 
TABS,ioos:station:wmo:42047:1,2015-05-03T09:30:00Z,27.8966,-93.5973,4.0,4.174266403,156.5673743,5.24,'11111222,11111222,11111222' 
TABS,ioos:station:wmo:42047:1,2015-05-03T10:00:00Z,27.8966,-93.5973,4.0,4.075941609,183.0942613,5.57,'11111222,11111222,11111222' 
TABS,ioos:station:wmo:42047:1,2015-05-03T10:30:00Z,27.8966,-93.5973,4.0,3.721034802,152.8154609,4.67,'11111222,11111222,11111222' 
TABS,ioos:station:wmo:42047:1,2015-05-03T11:00:00Z,27.8966,-93.5973,4.0,4.279299008,168.9528858,5.53,'11111222,11111222,11111222' 
TABS,ioos:station:wmo:42047:1,2015-05-03T11:30:00Z,27.8966,-93.5973,4.0,4.080490167,167.2582116,5.51,'11111222,11111222,11111222' 
TABS,ioos:station:wmo:42047:1,2015-05-03T12:00:00Z,27.8966,-93.5973,4.0,3.25207626,148.069603,4.45,'11111222,11111222,11111222' 
TABS,ioos:station:wmo:42047:1,2015-05-03T12:30:00Z,27.8966,-93.5973,4.0,3.8107742,152.4938284,5.13,'11111222,11111222,11111222' 
TABS,ioos:station:wmo:42047:1,2015-05-03T13:00:00Z,27.8966,-93.5973,4.0,2.751817581,145.2129594,4.08,'11111222,11111222,11111222' 
TABS,ioos:station:wmo:42047:1,2015-05-03T13:30:00Z,27.8966,-93.5973,4.0,3.662308015,128.9044684,4.92,'11111222,11111222,11111222' 
TABS,ioos:station:wmo:42047:1,2015-05-03T14:00:00Z,27.8966,-93.5973,4.0,36.97403684,133.9264221,4.62,'11111222,11111222,11111222' 
TABS,ioos:station:wmo:42047:1,2015-05-03T14:30:00Z,27.8966,-93.5973,4.0,4.438975107,132.1698215,5.45,'11111222,11111222,11111222' 
TABS,ioos:station:wmo:42047:1,2015-05-03T15:00:00Z,27.8966,-93.5973,4.0,5.345886269,128.3923258,6.6,'11111222,11111222,11111222' 
TABS,ioos:station:wmo:42047:1,2015-05-03T15:30:00Z,27.8966,-93.5973,4.0,5.863761591,159.4327771,7.27,'11111222,11111222,11111222' 
TABS,ioos:station:wmo:42047:1,2015-05-03T16:00:00Z,27.8966,-93.5973,4.0,6.054717169,121.9054219,6.93,'11111222,11111222,11111222' 
TABS,ioos:station:wmo:42047:1,2015-05-03T16:30:00Z,27.8966,-93.5973,4.0,6.32216735,120.093701,7.74,'11111222,11111222,11111222' 
TABS,ioos:station:wmo:42047:1,2015-05-03T17:00:00Z,27.8966,-93.5973,4.0,6.846020742,118.4371506,7.71,'11111222,11111222,11111222' 
TABS,ioos:station:wmo:42047:1,2015-05-03T17:30:00Z,27.8966,-93.5973,4.0,6.508486767,122.3229983,7.32,'11111222,11111222,11111222' 
TABS,ioos:station:wmo:42047:1,2015-05-03T18:00:00Z,27.8966,-93.5973,4.0,6.093947817,119.3837139,7.38,'11111222,11111222,11111222' 
TABS,ioos:station:wmo:42047:1,2015-05-03T18:30:00Z,27.8966,-93.5973,4.0,6.490747261,115.2625634,7.69,'11111222,11111222,11111222' 
TABS,ioos:station:wmo:42047:1,2015-05-03T19:00:00Z,27.8966,-93.5973,4.0,6.476048178,117.1984853,7.45,'11111222,11111222,11111222' 
TABS,ioos:station:wmo:42047:1,2015-05-03T19:30:00Z,27.8966,-93.5973,4.0,7.080346037,117.5063783,8.47,'11111222,11111222,11111222' 
TABS,ioos:station:wmo:42047:1,2015-05-03T20:00:00Z,27.8966,-93.5973,4.0,7.048545949,115.9110465,8.39,'11111222,11111222,11111222' 
TABS,ioos:station:wmo:42047:1,2015-05-03T20:30:00Z,27.8966,-93.5973,4.0,6.716345733,113.0533381,8.01,'11111222,11111222,11111222' 
TABS,ioos:station:wmo:42047:1,2015-05-03T21:00:00Z,27.8966,-93.5973,4.0,6.599045386,122.7512209,8.03,'11111222,11111222,11111222' 
TABS,ioos:station:wmo:42047:1,2015-05-03T21:30:00Z,27.8966,-93.5973,4.0,6.656162558,120.4178864,7.92,'11111222,11111222,11111222' 
TABS,ioos:station:wmo:42047:1,2015-05-03T22:00:00Z,27.8966,-93.5973,4.0,6.767761816,117.7391816,7.71,'11111222,11111222,11111222' 
TABS,ioos:station:wmo:42047:1,2015-05-03T22:30:00Z,27.8966,-93.5973,4.0,6.586387477,119.3675832,7.65,'11111222,11111222,11111222' 
TABS,ioos:station:wmo:42047:1,2015-05-03T23:00:00Z,27.8966,-93.5973,4.0,7.112728028,119.0158367,8.47,'11111222,11111222,11111222' 
TABS,ioos:station:wmo:42047:1,2015-05-03T23:30:00Z,27.8966,-93.5973,4.0,7.113683996,122.1935552,8.13,'11111222,11111222,11111222' 
TABS,ioos:station:wmo:42047:1,2015-05-04T00:00:00Z,27.8966,-93.5973,4.0,7.196339347,115.7820503,8.31,'11111222,11111222,11111222' 
TABS,ioos:station:wmo:42047:1,2015-05-04T00:30:00Z,27.8966,-93.5973,4.0,7.368921224,119.8706059,8.44,'11111222,11111222,11111222' 
TABS,ioos:station:wmo:42047:1,2015-05-04T01:00:00Z,27.8966,-93.5973,4.0,7.252923548,120.4899263,8.51,'11111222,11111222,11111222' 
TABS,ioos:station:wmo:42047:1,2015-05-04T01:30:00Z,27.8966,-93.5973,4.0,7.49950665,122.1434005,8.85,'11111222,11111222,11111222' 
TABS,ioos:station:wmo:42047:1,2015-05-04T02:00:00Z,27.8966,-93.5973,4.0,7.494164396,118.27522,8.83,'11111222,11111222,11111222' 
TABS,ioos:station:wmo:42047:1,2015-05-04T02:30:00Z,27.8966,-93.5973,4.0,7.16118007,123.6682192,8.37,'11111222,11111222,11111222' 
TABS,ioos:station:wmo:42047:1,2015-05-04T03:00:00Z,27.8966,-93.5973,4.0,7.365168023,128.5507961,8.33,'11111222,11111222,11111222' 
TABS,ioos:station:wmo:42047:1,2015-05-04T03:30:00Z,27.8966,-93.5973,4.0,7.74209274,125.5380156,8.82,'11111222,11111222,11111222' 
TABS,ioos:station:wmo:42047:1,2015-05-04T04:00:00Z,27.8966,-93.5973,4.0,7.86203536,129.1153985,9.59,'11111222,11111222,11111222' 
TABS,ioos:station:wmo:42047:1,2015-05-04T04:30:00Z,27.8966,-93.5973,4.0,7.570852,129.6411732,8.73,'11111222,11111222,11111222' 
TABS,ioos:station:wmo:42047:1,2015-05-04T05:00:00Z,27.8966,-93.5973,4.0,7.698058197,128.1951813,9.36,'11111222,11111222,11111222' 
TABS,ioos:station:wmo:42047:1,2015-05-04T05:30:00Z,27.8966,-93.5973,4.0,7.829648779,129.403009,9.17,'11111222,11111222,11111222' 
TABS,ioos:station:wmo:42047:1,2015-05-04T06:00:00Z,27.8966,-93.5973,4.0,7.832368735,127.4261992,9.24,'11111222,11111222,11111222' 
TABS,ioos:station:wmo:42047:1,2015-05-04T06:30:00Z,27.8966,-93.5973,4.0,7.266009909,126.7756071,8.46,'11111222,11111222,11111222' 
TABS,ioos:station:wmo:42047:1,2015-05-04T07:00:00Z,27.8966,-93.5973,4.0,7.125222804,127.9317371,8.45,'11111222,11111222,11111222' 
TABS,ioos:station:wmo:42047:1,2015-05-04T07:30:00Z,27.8966,-93.5973,4.0,6.413267498,132.3461264,7.85,'11111222,11111222,11111222' 
TABS,ioos:station:wmo:42047:1,2015-05-04T08:00:00Z,27.8966,-93.5973,4.0,5.850444428,136.7318212,7.52,'11111222,11111222,11111222' 
TABS,ioos:station:wmo:42047:1,2015-05-04T08:30:00Z,27.8966,-93.5973,4.0,5.668730017,132.6411551,7.34,'11111222,11111222,11111222' 
TABS,ioos:station:wmo:42047:1,2015-05-04T09:00:00Z,27.8966,-93.5973,4.0,4.916787569,142.1048745,5.96,'11111222,11111222,11111222' 
TABS,ioos:station:wmo:42047:1,2015-05-04T09:30:00Z,27.8966,-93.5973,4.0,4.72400254,135.8579709,6.25,'11111222,11111222,11111222' 
TABS,ioos:station:wmo:42047:1,2015-05-04T10:00:00Z,27.8966,-93.5973,4.0,4.339412403,132.2917744,5.57,'11111222,11111222,11111222' 
TABS,ioos:station:wmo:42047:1,2015-05-04T10:30:00Z,27.8966,-93.5973,4.0,4.21672859,133.0783642,6.0,'11111222,11111222,11111222' 
TABS,ioos:station:wmo:42047:1,2015-05-04T11:00:00Z,27.8966,-93.5973,4.0,4.182403615,152.209833,5.58,'11111222,11111222,11111222' 
TABS,ioos:station:wmo:42047:1,2015-05-04T11:30:00Z,27.8966,-93.5973,4.0,3.720215048,143.7464575,4.92,'11111222,11111222,11111222' 
TABS,ioos:station:wmo:42047:1,2015-05-04T12:00:00Z,27.8966,-93.5973,4.0,3.593563691,138.9493711,4.61,'11111222,11111222,11111222' 
TABS,ioos:station:wmo:42047:1,2015-05-04T12:30:00Z,27.8966,-93.5973,4.0,5.120595668,138.2459702,6.62,'11111222,11111222,11111222' 
TABS,ioos:station:wmo:42047:1,2015-05-04T13:00:00Z,27.8966,-93.5973,4.0,5.668483042,127.6182276,6.57,'11111222,11111222,11111222' 
TABS,ioos:station:wmo:42047:1,2015-05-04T13:30:00Z,27.8966,-93.5973,4.0,5.78070065,127.762307,7.07,'11111222,11111222,11111222' 
TABS,ioos:station:wmo:42047:1,2015-05-04T14:00:00Z,27.8966,-93.5973,4.0,5.911218149,125.7070288,7.34,'11111222,11111222,11111222' 
TABS,ioos:station:wmo:42047:1,2015-05-04T14:30:00Z,27.8966,-93.5973,4.0,5.11976562,135.633391,5.92,'11111222,11111222,11111222' 
TABS,ioos:station:wmo:42047:1,2015-05-04T15:00:00Z,27.8966,-93.5973,4.0,6.024101593,116.948226,6.95,'11111222,11111222,11111222' 
TABS,ioos:station:wmo:42047:1,2015-05-04T15:30:00Z,27.8966,-93.5973,4.0,5.84054792,113.4050557,6.68,'11111222,11111222,11111222' 
TABS,ioos:station:wmo:42047:1,2015-05-04T16:00:00Z,27.8966,-93.5973,4.0,5.681065041,119.1823023,6.44,'11111222,11111222,11111222' 
TABS,ioos:station:wmo:42047:1,2015-05-04T16:30:00Z,27.8966,-93.5973,4.0,5.420645718,111.3110785,6.21,'11111222,11111222,11111222' 
TABS,ioos:station:wmo:42047:1,2015-05-04T17:00:00Z,27.8966,-93.5973,4.0,5.006325998,107.67529,6.01,'11111222,11111222,11111222' 
TABS,ioos:station:wmo:42047:1,2015-05-04T17:30:00Z,27.8966,-93.5973,4.0,4.972926704,105.1544535,6.24,'11111222,11111222,11111222' 
TABS,ioos:station:wmo:42047:1,2015-05-04T18:00:00Z,27.8966,-93.5973,4.0,4.675489279,100.9738631,5.53,'11111222,11111222,11111222' 
TABS,ioos:station:wmo:42047:1,2015-05-04T18:30:00Z,27.8966,-93.5973,4.0,4.914671912,101.2646002,5.99,'11111222,11111222,11111222' 